Location: Red Deer
(52.2681°N, 113.8112°W)
Time: 16:43:14
(UTC-06:00)

Envisat - Pass Details

Date: 25 April 2024
Orbit: 762 x 764 km, 98.3° (Epoch: 27 May)

Event Time Altitude Azimuth Distance (km) Brightness Sun altitude
Rises 04:47:16 0° 17° (NNE) 3,241 7.3 -12.2°
Reaches altitude 10° 04:49:38 10° 21° (NNE) 2,310 6.5 -11.9°
Maximum altitude 04:54:39 58° 101° (E) 893 3.6 -11.3°
Drops below altitude 10° 04:59:37 10° 180° (S) 2,292 5.1 -10.7°
Enters shadow 05:01:30 - 184° (S) 3,036 5.7 -10.5°
